Other Public Products
Issued by NWS Charleston, SC

Current Version | Previous Version | Graphics & Text | Print | Product List | Glossary On
Versions: 1 2 3 4 5 6 7 8 9 10 11 12 13 14 15 16 17 18 19 20 21 22 23 24 25 26 27 28 29 30 31 32 33 34 35 36 37 38 39 40 41 42 43 44 45 46 47 48 49 50
000
FPUS82 KCHS 222112
OPUCHS

TEST...KCHS/KSAV Gateway Observations...TEST
National Weather Service Charleston SC
400 PM EST WED NOV 22 2017

NOTE: "fair" indicates few or no clouds below 12,000 feet with no
significant weather and/or obstructions to visibility.

SCZ050-WAZ558-NCZ071-TXZ119-213-PAZ071-DCZ001-FLZ074-172-MI076-
NYZ176-178-MAZ016-IL014-TNZ027-NJZ106-GAZ044-MD014-222200-

...Gateway Observations for Charleston International...

CITY           SKY/WX    TMP DP  RH WIND       PRES   REMARKS
Chas Airport   PTSUNNY   67  56  67 NE8       29.98R
Seattle        PTSUNNY   64  60  87 S13       29.95F
Charlotte      MOSUNNY   62  36  37 N8        30.03R
Dallas DFW     MOSUNNY   56  17  21 N13       30.28F
Dallas Love    MOSUNNY   55  21  26 N9        30.30F
Philladelphia  MOCLDY    48  30  49 N17G25    30.01R
Wash National  PTCLDY    50  28  42 NW17      30.08R
Baltimore      PTCLDY    47  28  47 NW17G24   30.05R
Miami          PTSUNNY   82  69  64 E10       29.90R
Detroit        CLOUDY    36  17  46 N6        30.26S WCI  31
Newark         PTCLDY    46  30  53 NW22G32   29.97R
Laguardia      MOCLDY    49  32  52 NW21      29.94R
J F K          PTCLDY    49  33  54 NW25      29.94R
Boston Logan   LGT RAIN  47  43  86 NW15      29.80S
Ft. Lauderdale MOSUNNY   80  70  71 VRB7      29.89R
Chicago O`Hare PTSUNNY   34  14  43 W8        30.26S WCI  27
Chicago Midway PTSUNNY   34  14  43 W8        30.27S WCI  27
Houston Bush   MOSUNNY   68  47  46 N16G26    30.17R
Houston Hobby  MOSUNNY   68  48  48 N13       30.15S
Nashville      MOSUNNY   47  24  40 NE15G21   30.21F
Atlanta        PTSUNNY   60  37  42 N13       30.03F

$$

GAZ044-118-TXZ119-213-NCZ071-DCZ001-MDZ014-506-PAZ021-071-NJZ106-
NYZ176-178-MAZ106-OHZ011-021-055-MIZ076-KYZ091-ILZ014-INZ047-
MNZ060-ONZ431-222200-

...Gateway Observations for Savannah International...

CITY           SKY/WX    TMP DP  RH WIND       PRES   REMARKS
Savannah Arpt  PTSUNNY   65  58  78 W6        30.00R
Atlanta        PTSUNNY   60  37  42 N13       30.03F
Charlotte      MOSUNNY   62  36  37 N8        30.03R
Dallas DFW     MOSUNNY   56  17  21 N13       30.28F
Houston Bush   MOSUNNY   68  47  46 N16G26    30.17R
Wash National  PTCLDY    50  28  42 NW17      30.08R
Wash Dulles    MOCLDY    47  28  47 N17G25    30.08R
Baltimore      PTCLDY    47  28  47 NW17G24   30.05R
Philadelphia   MOCLDY    48  30  49 N17G25    30.01R
Newark         PTCLDY    46  30  53 NW22G32   29.97R
Laguardia      MOCLDY    49  32  52 NW21      29.94R
J F K          PTCLDY    49  33  54 NW25      29.94R
Boston         LGT RAIN  47  43  86 NW15      29.80S
Pittsburg      CLOUDY    33  25  72 W12       30.19R WCI  24
Akron          CLOUDY    33  20  58 NW10      30.22R WCI  25
Cleveland      CLOUDY    33  20  58 W13       30.28R WCI  24
Cincinnati     MOSUNNY   38  25  59 N3        30.26S
Columbus       CLOUDY    34  22  61 NW8       30.26S WCI  27
Detroit        CLOUDY    36  17  46 N6        30.26S WCI  31
Chicago O`Hare PTSUNNY   34  14  43 W8        30.26S WCI  27
Minneapolis    CLOUDY    27  14  58 S7        30.13F WCI  19
Indianapolis   MOSUNNY   38  22  52 NW7       30.27F WCI  33
Toronto Canada MOCLDY    30  14  51 NW15G22   30.20R WCI  19

$$




USA.gov is the U.S. government's official web portal to all federal, state and local government web resources and services.